Starlink 30882

operational
NORAD ID: 58379 Int'l Des: 2023-178 Owner: SPXS Country: US Constellation: starlink
LEOCIRCULAR

Starlink 30882について

説明を読み込み中...

リアルタイム位置

3D地球を読み込み中...

次回通過

高度履歴

Altitude vs Time

uPlot chart will show altitude changes over time

軌道要素

1 58379U 23178F 25351.27859429 -.00002699 00000-0 -79031-4 0 9997
2 58379 53.1606 23.8848 0001391 91.0947 269.0213 15.30197860117273
Epoch: Dec 17, 2025 • Age: 8 hours

現在のステータス

高度 475.3 km
速度 7.63 km/s
衛星直下点 18.73°N, 91.11°E
打ち上げ日 Nov 20, 2023
運用期間 2 years
タイプ internet

技術仕様

分類 Payload
質量 730.00 kg
乾燥質量 700.00 kg
総質量 730.00 kg
長さ 0.30 m
直径 4.10 m
スパン 29.00 m
形状 Box + pan
製造者 SPXS
バスタイプ Starlink V2M
フェーズステータス In Orbit
所有者/国 SPXS/US

大規模コンステレーション

Loading constellations...